Weather History for Akron, OH

Change the Weather History Date:

Saturday, October 5, 2013

  Actual Average (KCAK) Record (KCAK)
Temperature  
Mean Temperature 68 °F 55 °F  
Max Temperature 75 °F 65 °F 89 °F (1922)
Min Temperature 64 °F 46 °F 30 °F (1965)
Degree Days  
Heating Degree Days 0 10  
Month to date heating degree days 47  
Since 1 July heating degree days 186  
Cooling Degree Days 4 0  
Month to date cooling degree days 3  
Year to date cooling degree days 649  
Growing Degree Days 18 (Base 50)    
Moisture  
Dew Point 67 °F    
Average Humidity 92    
Maximum Humidity 96    
Minimum Humidity 76    
Precipitation  
Precipitation 0.41 in 0.09 in 1.30 in (2013)
Month to date precipitation 0.46  
Year to date precipitation 31.11  
Snow  
Snow 0.00 in 0.00 in - ()
Month to date snowfall 0.0  
Since 1 July snowfall 0.0  
Since 1 September snowfall 0.0  
Snow Depth -    
Sea Level Pressure  
Sea Level Pressure 30.03 in    
Wind  
Wind Speed 4 mph (South)    
Max Wind Speed 10 mph    
Max Gust Speed -    
Visibility 6 miles    
Events Rain    
T = Trace of Precipitation, MM = Missing Value Source: NWS Daily Summary

Daily Weather History Graph

Daily Weather History Graph

Search for Another Location

Airport:

Trip Planner

Search our weather history database for the weather conditions in past years. The results will help you decide how hot, cold, wet, or windy it might be!

Date:

Astronomy

Oct. 05, 2013 Rise Set
Actual Time 7:26 AM EDT 7:00 PM EDT
Civil Twilight 6:59 AM EDT 7:28 PM EDT
Nautical Twilight 6:27 AM EDT 8:00 PM EDT
Astronomical Twilight 5:55 AM EDT 8:32 PM EDT
Moon 8:05 AM EDT (10/5) 7:18 PM EDT (10/5)
Length of Visible Light 12h 28m
Length of Day
11h 33m
New Moon, 0% of the Moon is Illuminated
Oct 5
New Moon
Oct 11
First Quarter
Oct 18
Full
Oct 26
Last Quarter
Nov 3
New

Hourly Weather History & Observations

Time (EDT) Temp. Dew Point Humidity Pressure Visibility Wind Dir Wind Speed Gust Speed Precip Events Conditions
12:54 AM 69.1 °F 66.0 °F 90% 30.05 in 8.0 mi South 4.6 mph - N/A   Mostly Cloudy
1:54 AM 66.9 °F 64.0 °F 90% 30.05 in 7.0 mi Calm Calm - N/A   Scattered Clouds
2:54 AM 66.9 °F 64.9 °F 93% 30.05 in 8.0 mi SSW 4.6 mph - N/A   Mostly Cloudy
3:54 AM 66.0 °F 64.0 °F 93% 30.05 in 7.0 mi Calm Calm - N/A   Scattered Clouds
4:54 AM 64.9 °F 63.0 °F 93% 30.04 in 6.0 mi South 4.6 mph - N/A   Clear
5:54 AM 66.0 °F 64.0 °F 93% 30.06 in 6.0 mi SW 5.8 mph - N/A   Clear
6:54 AM 64.9 °F 63.0 °F 93% 30.06 in 5.0 mi SSW 4.6 mph - N/A   Scattered Clouds
7:52 AM 64.4 °F 62.6 °F 94% 30.08 in 2.5 mi Calm Calm - N/A   Clear
7:54 AM 64.0 °F 63.0 °F 96% 30.06 in 2.5 mi Calm Calm - N/A   Clear
8:31 AM 66.2 °F 64.4 °F 94% 30.08 in 4.0 mi Calm Calm - N/A   Scattered Clouds
8:54 AM 66.9 °F 64.9 °F 93% 30.06 in 5.0 mi Calm Calm - N/A   Partly Cloudy
9:54 AM 71.1 °F 66.0 °F 84% 30.06 in 9.0 mi South 3.5 mph - N/A   Clear
10:54 AM 73.9 °F 66.0 °F 76% 30.04 in 10.0 mi SSW 6.9 mph - N/A   Clear
11:54 AM 73.0 °F 66.9 °F 81% 30.05 in 10.0 mi SW 8.1 mph - N/A   Scattered Clouds
12:54 PM 71.1 °F 68.0 °F 90% 30.06 in 5.0 mi SSW 3.5 mph - 0.01 in Rain Light Rain
1:11 PM 71.6 °F 68.0 °F 88% 30.07 in 2.0 mi SW 5.8 mph - 0.04 in Rain Rain
1:19 PM 71.6 °F 69.8 °F 94% 30.07 in 1.8 mi SSW 5.8 mph - 0.07 in Rain Rain
1:25 PM 71.6 °F 69.8 °F 94% 30.06 in 3.0 mi SSW 4.6 mph - 0.07 in Rain Light Rain
1:49 PM 71.6 °F 69.8 °F 94% 30.05 in 4.0 mi SE 3.5 mph - 0.07 in   Overcast
1:54 PM 71.1 °F 69.1 °F 93% 30.03 in 4.0 mi Calm Calm - 0.07 in   Overcast
2:16 PM 71.6 °F 69.8 °F 94% 30.03 in 5.0 mi Calm Calm - 0.00 in Rain Light Rain
2:54 PM 72.0 °F 69.1 °F 91% 30.01 in 5.0 mi South 4.6 mph - 0.00 in   Mostly Cloudy
3:28 PM 71.6 °F 69.8 °F 94% 30.03 in 1.8 mi Calm Calm - 0.04 in Rain Rain
3:33 PM 71.6 °F 69.8 °F 94% 30.03 in 1.2 mi SSW 4.6 mph - 0.06 in Rain Rain
3:40 PM 71.6 °F 69.8 °F 94% 30.03 in 0.8 mi SSW 8.1 mph - 0.14 in Rain Heavy Rain
3:54 PM 71.1 °F 70.0 °F 96% 30.00 in 1.2 mi Variable 4.6 mph - 0.23 in Rain Light Rain
3:56 PM 71.6 °F 69.8 °F 94% 30.02 in 2.0 mi ESE 4.6 mph - 0.00 in Rain Light Rain
4:05 PM 71.6 °F 69.8 °F 94% 30.02 in 3.0 mi Variable 3.5 mph - 0.00 in   Overcast
4:17 PM 71.6 °F 69.8 °F 94% 30.01 in 5.0 mi SE 4.6 mph - 0.00 in   Overcast
4:54 PM 72.0 °F 69.1 °F 91% 29.99 in 10.0 mi South 3.5 mph - 0.00 in   Partly Cloudy
5:54 PM 71.1 °F 69.1 °F 93% 29.97 in 6.0 mi SSE 5.8 mph - N/A   Clear
6:54 PM 70.0 °F 66.9 °F 90% 29.96 in 10.0 mi South 9.2 mph - N/A   Clear
7:54 PM 69.1 °F 66.9 °F 93% 29.97 in 10.0 mi South 4.6 mph - N/A   Scattered Clouds
8:19 PM 69.8 °F 66.2 °F 88% 30.00 in 2.5 mi SSW 10.4 mph - 0.10 in Rain Light Rain
8:26 PM 69.8 °F 66.2 °F 88% 30.00 in 10.0 mi SSW 8.1 mph - 0.10 in Rain Light Rain
8:54 PM 69.1 °F 66.9 °F 93% 29.98 in 10.0 mi South 8.1 mph - 0.10 in   Mostly Cloudy
9:54 PM 69.1 °F 66.9 °F 93% 29.99 in 10.0 mi South 6.9 mph - 0.00 in   Mostly Cloudy
10:54 PM 69.1 °F 66.9 °F 93% 29.97 in 10.0 mi South 5.8 mph - N/A   Overcast
11:54 PM 68.0 °F 66.0 °F 93% 29.96 in 10.0 mi South 3.5 mph - N/A   Mostly Cloudy